When you browse on this site, cookies collect data to enhance your experience and personalize the content and advertising you see.
Visit our Privacy Policy to learn more. By continuing to use the site, you agree to this use of cookies and data.
  • en Suisse
  • Liste des pays
  • À 7 jours
  • Température de l'eau
  • Carte satellitaire
  • Carte météo
  • Widgets météo
  • user-avatar
    Se connecter

    Météo par heure à Ouina

    Ce jour, 20 Novembre, Mardi

    Heure Température Précipitation Vent Pression Humidité
    00:00 +22°C° 0 mm 0 m/s 741 mmHg 99%
    01:00 +22°C° 0 mm 0 m/s 740 mmHg 99%
    02:00 +22°C° 0 mm 0 m/s 740 mmHg 99%
    03:00 +22°C° 0 mm 0 m/s 740 mmHg 99%
    04:00 +22°C° 0 mm 0 m/s 740 mmHg 99%
    05:00 +21°C° 0 mm 0 m/s 740 mmHg 99%
    06:00 +21°C° 0 mm 0 m/s 740 mmHg 99%
    07:00 +25°C° 0 mm 1 m/s 741 mmHg 93%
    08:00 +26°C° 0 mm 1 m/s 741 mmHg 88%
    09:00 +27°C° 0 mm 1 m/s 741 mmHg 83%
    10:00 +29°C° 0.1 mm 1 m/s 741 mmHg 74%
    11:00 +31°C° 0.1 mm 2 m/s 741 mmHg 65%
    12:00 +34°C° 0.1 mm 2 m/s 740 mmHg 56%
    13:00 +32°C° 0.2 mm 2 m/s 740 mmHg 60%
    14:00 +31°C° 0.2 mm 2 m/s 739 mmHg 64%
    15:00 +31°C° 0.2 mm 2 m/s 739 mmHg 68%
    16:00 +29°C° 0.2 mm 2 m/s 740 mmHg 76%
    17:00 +27°C° 0.2 mm 1 m/s 740 mmHg 84%
    18:00 +25°C° 0.2 mm 1 m/s 740 mmHg 92%
    19:00 +25°C° 0 mm 1 m/s 741 mmHg 95%
    20:00 +24°C° 0 mm 1 m/s 741 mmHg 97%
    21:00 +24°C° 0 mm 1 m/s 742 mmHg 99%
    22:00 +24°C° 0 mm 1 m/s 742 mmHg 99%
    23:00 +24°C° 0 mm 1 m/s 741 mmHg 98%

    Demain, 21 Novembre, Mercredi

    Heure Température Précipitation Vent Pression Humidité
    00:00 +24°C° 0 mm 1 m/s 741 mmHg 98%
    01:00 +24°C° 0 mm 1 m/s 741 mmHg 98%
    02:00 +24°C° 0 mm 1 m/s 741 mmHg 98%
    03:00 +24°C° 0 mm 1 m/s 740 mmHg 98%
    04:00 +24°C° 0 mm 1 m/s 741 mmHg 98%
    05:00 +24°C° 0 mm 1 m/s 741 mmHg 98%
    06:00 +24°C° 0 mm 1 m/s 741 mmHg 98%
    07:00 +25°C° 0.1 mm 1 m/s 742 mmHg 93%
    08:00 +26°C° 0.1 mm 1 m/s 742 mmHg 89%
    09:00 +27°C° 0.1 mm 2 m/s 742 mmHg 85%
    10:00 +28°C° 0.3 mm 2 m/s 742 mmHg 79%
    11:00 +29°C° 0.3 mm 2 m/s 741 mmHg 74%
    12:00 +30°C° 0.3 mm 2 m/s 741 mmHg 68%
    13:00 +30°C° 0.5 mm 2 m/s 740 mmHg 72%
    14:00 +29°C° 0.5 mm 2 m/s 740 mmHg 76%
    15:00 +29°C° 0.5 mm 2 m/s 739 mmHg 80%
    16:00 +27°C° 0.2 mm 2 m/s 740 mmHg 85%
    17:00 +26°C° 0.2 mm 1 m/s 740 mmHg 91%
    18:00 +25°C° 0.2 mm 1 m/s 741 mmHg 96%
    19:00 +24°C° 0.1 mm 1 m/s 741 mmHg 97%
    20:00 +24°C° 0.1 mm 1 m/s 742 mmHg 98%
    21:00 +24°C° 0.1 mm 1 m/s 742 mmHg 99%
    22:00 +24°C° 0 mm 1 m/s 742 mmHg 99%
    23:00 +24°C° 0 mm 1 m/s 742 mmHg 99%

    Après-demain, 22 Novembre, Jeudi

    Heure Température Précipitation Vent Pression Humidité
    00:00 +23°C° 0 mm 1 m/s 742 mmHg 99%
    01:00 +23°C° 0 mm 1 m/s 741 mmHg 99%
    02:00 +23°C° 0 mm 1 m/s 741 mmHg 99%
    03:00 +23°C° 0 mm 1 m/s 741 mmHg 99%
    04:00 +23°C° 0 mm 1 m/s 741 mmHg 99%
    05:00 +23°C° 0 mm 1 m/s 741 mmHg 99%
    06:00 +23°C° 0 mm 1 m/s 741 mmHg 99%
    07:00 +24°C° 0 mm 1 m/s 742 mmHg 92%
    08:00 +26°C° 0 mm 1 m/s 742 mmHg 85%
    09:00 +28°C° 0 mm 1 m/s 742 mmHg 78%
    10:00 +29°C° 0.2 mm 2 m/s 742 mmHg 74%
    11:00 +29°C° 0.2 mm 2 m/s 741 mmHg 71%
    12:00 +30°C° 0.2 mm 2 m/s 741 mmHg 68%
    13:00 +30°C° 0.6 mm 2 m/s 740 mmHg 72%
    14:00 +29°C° 0.6 mm 2 m/s 740 mmHg 76%
    15:00 +29°C° 0.6 mm 2 m/s 739 mmHg 81%
    16:00 +27°C° 0.5 mm 1 m/s 739 mmHg 86%
    17:00 +26°C° 0.5 mm 1 m/s 740 mmHg 92%
    18:00 +22°C° 0.5 mm 0 m/s 740 mmHg 98%
    19:00 +24°C° 0 mm 1 m/s 741 mmHg 98%
    20:00 +24°C° 0 mm 1 m/s 741 mmHg 98%
    21:00 +23°C° 0 mm 1 m/s 742 mmHg 99%
    22:00 +23°C° 0 mm 1 m/s 742 mmHg 99%
    23:00 +21°C° 0 mm 0 m/s 741 mmHg 99%

    23 Novembre, Vendredi

    Heure Température Précipitation Vent Pression Humidité
    00:00 +21°C° 0 mm 0 m/s 741 mmHg 99%
    01:00 +21°C° 0 mm 0 m/s 740 mmHg 99%
    02:00 +22°C° 0 mm 1 m/s 740 mmHg 99%
    03:00 +22°C° 0 mm 1 m/s 739 mmHg 99%
    04:00 +22°C° 0 mm 1 m/s 740 mmHg 99%
    05:00 +22°C° 0 mm 1 m/s 740 mmHg 99%
    06:00 +19°C° 0 mm 0 m/s 740 mmHg 99%
    07:00 +23°C° 0 mm 1 m/s 740 mmHg 94%
    08:00 +24°C° 0 mm 1 m/s 741 mmHg 89%
    09:00 +26°C° 0 mm 1 m/s 741 mmHg 85%
    10:00 +28°C° 0 mm 1 m/s 741 mmHg 75%
    11:00 +30°C° 0 mm 1 m/s 740 mmHg 65%
    12:00 +32°C° 0 mm 2 m/s 740 mmHg 55%
    13:00 +31°C° 0.2 mm 2 m/s 739 mmHg 57%
    14:00 +31°C° 0.2 mm 2 m/s 738 mmHg 59%
    15:00 +31°C° 0.2 mm 2 m/s 737 mmHg 61%
    16:00 +29°C° 0.1 mm 1 m/s 738 mmHg 70%
    17:00 +27°C° 0.1 mm 1 m/s 738 mmHg 79%
    18:00 +25°C° 0.1 mm 1 m/s 738 mmHg 87%
    19:00 +25°C° 0 mm 1 m/s 739 mmHg 90%
    20:00 +22°C° 0 mm 0 m/s 740 mmHg 94%
    21:00 +21°C° 0 mm 0 m/s 740 mmHg 97%
    22:00 +21°C° 0 mm 0 m/s 740 mmHg 98%
    23:00 +21°C° 0 mm 0 m/s 740 mmHg 98%

    24 Novembre, Samedi

    Heure Température Précipitation Vent Pression Humidité
    00:00 +21°C° 0 mm 0 m/s 740 mmHg 99%
    01:00 +20°C° 0 mm 0 m/s 739 mmHg 99%
    02:00 +20°C° 0 mm 0 m/s 739 mmHg 99%
    03:00 +20°C° 0 mm 0 m/s 739 mmHg 99%
    04:00 +20°C° 0 mm 0 m/s 739 mmHg 99%
    05:00 +20°C° 0 mm 0 m/s 739 mmHg 99%
    06:00 +20°C° 0 mm 0 m/s 739 mmHg 99%
    07:00 +22°C° 0 mm 0 m/s 740 mmHg 90%
    08:00 +26°C° 0 mm 1 m/s 740 mmHg 81%
    09:00 +28°C° 0 mm 1 m/s 741 mmHg 72%
    10:00 +30°C° 0 mm 1 m/s 740 mmHg 65%
    11:00 +31°C° 0 mm 1 m/s 739 mmHg 58%
    12:00 +33°C° 0 mm 1 m/s 739 mmHg 52%
    13:00 +33°C° 0 mm 1 m/s 738 mmHg 52%
    14:00 +33°C° 0 mm 1 m/s 737 mmHg 52%
    15:00 +33°C° 0 mm 1 m/s 737 mmHg 52%
    16:00 +31°C° 0.1 mm 1 m/s 737 mmHg 64%
    17:00 +28°C° 0.1 mm 1 m/s 738 mmHg 76%
    18:00 +26°C° 0.1 mm 1 m/s 738 mmHg 88%
    19:00 +25°C° 0.2 mm 1 m/s 739 mmHg 91%
    20:00 +23°C° 0.2 mm 0 m/s 739 mmHg 94%
    21:00 +22°C° 0.2 mm 0 m/s 740 mmHg 98%
    22:00 +22°C° 0 mm 0 m/s 740 mmHg 98%
    23:00 +22°C° 0 mm 0 m/s 739 mmHg 98%

    25 Novembre, Dimanche

    Heure Température Précipitation Vent Pression Humidité
    00:00 +22°C° 0 mm 0 m/s 739 mmHg 99%
    01:00 +21°C° 0 mm 0 m/s 739 mmHg 99%
    02:00 +21°C° 0 mm 0 m/s 739 mmHg 99%
    03:00 +21°C° 0 mm 0 m/s 738 mmHg 99%
    04:00 +21°C° 0 mm 0 m/s 739 mmHg 99%
    05:00 +21°C° 0 mm 0 m/s 739 mmHg 99%
    06:00 +21°C° 0 mm 0 m/s 740 mmHg 99%
    07:00 +23°C° 0 mm 0 m/s 740 mmHg 89%
    08:00 +25°C° 0 mm 0 m/s 740 mmHg 79%
    09:00 +27°C° 0 mm 0 m/s 741 mmHg 69%
    10:00 +29°C° 0 mm 0 m/s 740 mmHg 63%
    11:00 +32°C° 0 mm 1 m/s 739 mmHg 57%
    12:00 +33°C° 0 mm 1 m/s 739 mmHg 51%
    13:00 +33°C° 0.1 mm 1 m/s 738 mmHg 54%
    14:00 +32°C° 0.1 mm 1 m/s 738 mmHg 57%
    15:00 +32°C° 0.1 mm 1 m/s 737 mmHg 59%
    16:00 +30°C° 0.1 mm 1 m/s 737 mmHg 70%
    17:00 +28°C° 0.1 mm 1 m/s 738 mmHg 80%
    18:00 +24°C° 0.1 mm 0 m/s 738 mmHg 91%
    19:00 +23°C° 0 mm 0 m/s 739 mmHg 93%
    20:00 +23°C° 0 mm 0 m/s 740 mmHg 95%
    21:00 +22°C° 0 mm 0 m/s 740 mmHg 97%
    22:00 +22°C° 0 mm 0 m/s 740 mmHg 97%
    23:00 +22°C° 0 mm 0 m/s 740 mmHg 98%
    Voir plus